Charlevoix, MI

9:27 AM EDT on April 30, 2017 (GMT -0400)
Charlevoix Municipal

Weather History for KCVX - December, 2011

Change the Weather History Date:

Monday, December 5, 2011

  Actual Average Record
Temperature  
Mean Temperature 30 °F -  
Max Temperature 34 °F 39 °F 64 °F (2001)
Min Temperature 27 °F 30 °F 17 °F (2005)
Degree Days  
Heating Degree Days 34    
Moisture  
Dew Point 26 °F    
Average Humidity 77    
Maximum Humidity 86    
Minimum Humidity 71    
Precipitation  
Precipitation 0.00 in - - ()
Sea Level Pressure  
Sea Level Pressure 30.31 in    
Wind  
Wind Speed 9 mph (NNW)    
Max Wind Speed 15 mph    
Max Gust Speed 22 mph    
Visibility 10 miles    
Events      
Averages and records for this station are not official NWS values.
T = Trace of Precipitation, MM = Missing Value Source: NWS Daily Summary

Daily Weather History Graph

Daily Weather History Graph

Search for Another Location

Airport or City:

Trip Planner

Search our weather history database for the weather conditions in past years. The results will help you decide how hot, cold, wet, or windy it might be!

Date:

Astronomy

Dec. 05, 2011 Rise Set
Actual Time 8:04 AM EST 4:58 PM EST
Civil Twilight 7:30 AM EST 5:32 PM EST
Nautical Twilight 6:53 AM EST 6:09 PM EST
Astronomical Twilight 6:17 AM EST 6:45 PM EST
Moon 2:04 PM EST (12/5) 3:15 AM EST (12/5)
Length of Visible Light 10h 01m
Length of Day
8h 54m
Waxing Gibbous, 79% of the Moon is Illuminated
Dec 5
Waxing Gibbous
Dec 10
Full
Dec 17
Last Quarter
Dec 24
New
Jan 1
First Quarter

Hourly Weather History & Observations

Time (EST) Temp. Windchill Dew Point Humidity Pressure Visibility Wind Dir Wind Speed Gust Speed Precip Events Conditions
12:14 AM 33.8 °F 24.8 °F 30.0 °F 86% 30.24 in 10.0 mi NW 12.7 mph - N/A   Overcast
12:35 AM 34.0 °F 26.6 °F 29.5 °F 84% 30.24 in 10.0 mi NW 9.2 mph - N/A   Overcast
12:55 AM 34.2 °F 27.5 °F 28.8 °F 81% 30.24 in 10.0 mi NW 8.1 mph - N/A   Overcast
1:14 AM 34.2 °F 27.5 °F 28.9 °F 81% 30.24 in 10.0 mi NW 8.1 mph - N/A   Overcast
1:35 AM 34.0 °F 27.2 °F 29.1 °F 82% 30.25 in 10.0 mi NW 8.1 mph - N/A   Overcast
2:14 AM 33.8 °F 27.7 °F 28.9 °F 82% 30.24 in 10.0 mi NW 6.9 mph - N/A   Overcast
2:35 AM 33.8 °F 27.7 °F 29.1 °F 83% 30.24 in 10.0 mi NW 6.9 mph - N/A   Overcast
2:54 AM 33.8 °F 27.7 °F 28.9 °F 82% 30.24 in 10.0 mi NNW 6.9 mph - N/A   Overcast
3:14 AM 33.8 °F 27.0 °F 28.2 °F 80% 30.24 in 10.0 mi NNW 8.1 mph - N/A   Overcast
3:35 AM 33.8 °F 28.6 °F 27.9 °F 79% 30.24 in 10.0 mi NNW 5.8 mph - N/A   Overcast
3:54 AM 33.8 °F 27.7 °F 27.3 °F 77% 30.24 in 10.0 mi NW 6.9 mph - N/A   Overcast
4:14 AM 33.8 °F 27.7 °F 27.0 °F 76% 30.23 in 10.0 mi NW 6.9 mph - N/A   Overcast
4:35 AM 33.6 °F 26.2 °F 26.1 °F 74% 30.24 in 10.0 mi NNW 9.2 mph - N/A   Overcast
5:15 AM 33.8 °F 27.0 °F 26.2 °F 74% 30.25 in 10.0 mi NW 8.1 mph - N/A   Overcast
5:34 AM 33.8 °F 29.6 °F 25.9 °F 73% 30.25 in 10.0 mi NW 4.6 mph - N/A   Overcast
6:15 AM 33.8 °F 27.0 °F 26.1 °F 73% 30.27 in 10.0 mi NW 8.1 mph - N/A   Overcast
6:35 AM 33.6 °F 29.4 °F 26.1 °F 74% 30.27 in 10.0 mi NW 4.6 mph - N/A   Overcast
6:54 AM 33.8 °F 29.6 °F 25.7 °F 72% 30.28 in 10.0 mi NW 4.6 mph - N/A   Overcast
7:15 AM 33.6 °F 29.4 °F 26.2 °F 74% 30.29 in 10.0 mi NW 4.6 mph - N/A   Overcast
7:34 AM 33.4 °F 27.3 °F 28.0 °F 81% 30.31 in 10.0 mi NNW 6.9 mph - N/A   Overcast
7:54 AM 33.4 °F 29.1 °F 27.5 °F 79% 30.31 in 10.0 mi NNW 4.6 mph - N/A   Overcast
8:15 AM 33.6 °F 29.4 °F 28.4 °F 81% 30.32 in 10.0 mi North 4.6 mph - N/A   Overcast
8:34 AM 33.4 °F 25.9 °F 28.0 °F 81% 30.32 in 10.0 mi NNW 9.2 mph - N/A   Overcast
8:54 AM 33.8 °F 26.4 °F 28.2 °F 80% 30.31 in 10.0 mi NNW 9.2 mph - N/A   Overcast
9:14 AM 33.6 °F 26.2 °F 27.0 °F 77% 30.30 in 10.0 mi NNW 9.2 mph - N/A   Overcast
9:34 AM 33.6 °F 25.6 °F 26.6 °F 75% 30.30 in 10.0 mi NNW 10.4 mph - N/A   Overcast
9:55 AM 33.4 °F 24.8 °F 27.9 °F 80% 30.28 in 10.0 mi NNW 11.5 mph 17.3 mph N/A   Overcast
10:14 AM 32.9 °F 24.1 °F 28.4 °F 84% 30.30 in 10.0 mi NW 11.5 mph 17.3 mph N/A   Mostly Cloudy
10:34 AM 33.3 °F 25.1 °F 28.2 °F 82% 30.34 in 10.0 mi NW 10.4 mph - N/A   Mostly Cloudy
10:55 AM 33.1 °F 23.9 °F 27.3 °F 79% 30.33 in 10.0 mi NW 12.7 mph 17.3 mph N/A   Mostly Cloudy
11:14 AM 34.5 °F 27.3 °F 26.4 °F 72% 30.33 in 10.0 mi NNW 9.2 mph - N/A   Mostly Cloudy
11:34 AM 33.6 °F 25.0 °F 25.2 °F 71% 30.34 in 10.0 mi NW 11.5 mph - N/A   Mostly Cloudy
11:55 AM 34.7 °F 27.5 °F 27.5 °F 75% 30.33 in 10.0 mi NW 9.2 mph - N/A   Scattered Clouds
12:14 PM 34.0 °F 26.0 °F 26.4 °F 74% 30.34 in 10.0 mi NW 10.4 mph 16.1 mph N/A   Mostly Cloudy
12:35 PM 33.8 °F 26.4 °F 25.2 °F 71% 30.33 in 10.0 mi NNW 9.2 mph - N/A   Mostly Cloudy
12:55 PM 32.9 °F 26.7 °F 24.8 °F 72% 30.33 in 10.0 mi NW 6.9 mph - N/A   Mostly Cloudy
1:14 PM 33.1 °F 24.4 °F 26.6 °F 77% 30.33 in 10.0 mi NNW 11.5 mph 17.3 mph N/A   Mostly Cloudy
1:35 PM 32.7 °F 25.7 °F 25.5 °F 75% 30.32 in 10.0 mi North 8.1 mph - N/A   Overcast
1:54 PM 32.4 °F 26.0 °F 25.3 °F 75% 30.32 in 10.0 mi NNW 6.9 mph - N/A   Overcast
2:14 PM 32.9 °F 25.9 °F 26.1 °F 76% 30.32 in 10.0 mi NNW 8.1 mph - N/A   Overcast
2:35 PM 32.2 °F 23.8 °F 24.8 °F 74% 30.32 in 10.0 mi NNW 10.4 mph - N/A   Overcast
2:55 PM 32.0 °F 23.0 °F 24.8 °F 75% 30.32 in 10.0 mi North 11.5 mph 17.3 mph N/A   Overcast
3:14 PM 32.0 °F 23.0 °F 24.4 °F 74% 30.32 in 10.0 mi North 11.5 mph - N/A   Overcast
3:35 PM 32.0 °F 23.6 °F 24.4 °F 74% 30.32 in 10.0 mi North 10.4 mph 17.3 mph N/A   Overcast
4:14 PM 31.1 °F 21.9 °F 24.4 °F 76% 30.33 in 10.0 mi North 11.5 mph - N/A   Overcast
4:35 PM 30.4 °F 20.0 °F 23.7 °F 76% 30.33 in 10.0 mi North 13.8 mph - N/A   Overcast
5:14 PM 29.8 °F 20.3 °F 23.9 °F 79% 30.35 in 10.0 mi North 11.5 mph 16.1 mph N/A   Overcast
5:35 PM 29.8 °F 20.9 °F 23.9 °F 79% 30.35 in 10.0 mi North 10.4 mph 18.4 mph N/A   Overcast
5:54 PM 29.3 °F 19.1 °F 23.2 °F 78% 30.35 in 10.0 mi North 12.7 mph 19.6 mph N/A   Overcast
6:15 PM 29.3 °F 19.1 °F 22.6 °F 76% 30.35 in 10.0 mi NNW 12.7 mph 19.6 mph N/A   Overcast
6:54 PM 28.9 °F 17.7 °F 21.6 °F 74% 30.34 in 10.0 mi North 15.0 mph 19.6 mph N/A   Overcast
7:14 PM 28.6 °F 18.2 °F 22.8 °F 79% 30.35 in 10.0 mi NNW 12.7 mph 21.9 mph N/A   Overcast
7:34 PM 28.4 °F 19.1 °F 21.7 °F 76% 30.35 in 10.0 mi NNW 10.4 mph 19.6 mph N/A   Overcast
7:55 PM 27.7 °F 16.6 °F 21.7 °F 78% 30.36 in 10.0 mi NNW 13.8 mph 21.9 mph N/A   Overcast
8:14 PM 27.3 °F 19.1 °F 19.9 °F 74% 30.37 in 10.0 mi NNW 8.1 mph - N/A   Overcast
8:34 PM 27.5 °F 16.8 °F 21.0 °F 77% 30.36 in 10.0 mi NNW 12.7 mph - N/A   Overcast
8:55 PM 27.3 °F 17.7 °F 20.8 °F 77% 30.37 in 10.0 mi NNW 10.4 mph - N/A   Overcast
9:15 PM 27.1 °F 16.9 °F 20.3 °F 75% 30.37 in 10.0 mi North 11.5 mph 16.1 mph N/A   Overcast
9:34 PM 27.1 °F 18.9 °F 20.7 °F 77% 30.37 in 10.0 mi North 8.1 mph - N/A   Overcast
9:55 PM 27.0 °F 16.7 °F 20.7 °F 77% 30.37 in 10.0 mi North 11.5 mph - N/A   Overcast
10:34 PM 26.8 °F 17.1 °F 21.2 °F 79% 30.36 in 10.0 mi NNW 10.4 mph - N/A   Overcast
10:55 PM 26.6 °F 18.2 °F 21.2 °F 80% 30.35 in 10.0 mi North 8.1 mph - N/A   Overcast
11:15 PM 26.8 °F 18.5 °F 21.2 °F 79% 30.35 in 10.0 mi NNW 8.1 mph 17.3 mph N/A   Overcast
11:34 PM 27.1 °F 20.7 °F 21.9 °F 81% 30.35 in 10.0 mi NNE 5.8 mph - N/A   Overcast
11:55 PM 27.1 °F 21.8 °F 22.1 °F 81% 30.35 in 10.0 mi NE 4.6 mph - N/A   Overcast